FW3072 Weather Reports


time (UTC)temp
C
wind
direction
speed
KPH
gust
KPH
rain 1hr
cm
rain 24hr
cm
rain mn
cm
humidity
%
barometer
mb
20260508013202 6 291 0.0 11.3 0.18 0.18 0.18 86 1011.9
20260508012203 6 277 6.4 16.1 0.13 0.13 0.13 85 1012.0
20260508011203 6 264 1.6 12.9 0.08 0.08 0.08 85 1011.9
20260508010203 6 280 4.8 12.9 0.00 0.00 0.00 84 1011.6
20260508005204 6 325 0.0 0.0 0.00 0.00 0.00 83 1011.3
20260508004203 6 326 0.0 0.0 0.00 0.00 0.00 82 1011.1
20260508003203 6 326 0.0 4.8 0.00 0.00 0.00 82 1011.0
20260508002202 6 336 1.6 9.7 0.00 0.00 0.00 81 1010.9
20260508001203 7 323 0.0 19.3 0.00 0.00 0.00 79 1011.0
20260508000204 7 286 12.9 24.1 0.00 0.00 0.00 76 1011.2
20260507235203 8 298 9.7 22.5 0.00 0.00 0.00 72 1011.1
20260507234205 8 295 16.1 25.7 0.00 0.00 0.00 69 1011.1
20260507233202 9 310 11.3 20.9 0.00 0.00 0.00 66 1010.7
20260507232203 10 307 1.6 12.9 0.00 0.00 0.00 65 1010.5
20260507231202 10 313 0.0 8.0 0.00 0.00 0.00 65 1010.4
20260507230203 10 284 6.4 11.3 0.00 0.00 0.00 64 1010.3
20260507225202 10 301 1.6 8.0 0.00 0.00 0.00 64 1010.3
20260507224203 10 301 4.8 9.7 0.00 0.00 0.00 62 1010.3
20260507223203 10 305 4.8 9.7 0.00 0.00 0.00 62 1010.3
20260507222202 10 325 1.6 11.3 0.00 0.00 0.00 62 1010.3
20260507221203 10 291 4.8 14.5 0.00 0.00 0.00 63 1010.3
20260507220202 10 273 4.8 14.5 0.00 0.00 0.00 63 1010.4
20260507215203 10 274 1.6 11.3 0.00 0.00 0.00 64 1010.4
20260507214202 11 286 3.2 11.3 0.00 0.00 0.00 63 1010.4
20260507213224 10 279 1.6 12.9 0.00 0.00 0.00 65 1010.3
20260507212202 10 297 3.2 6.4 0.00 0.00 0.00 64 1010.4
20260507211203 10 327 0.0 4.8 0.00 0.00 0.00 63 1010.3
20260507210202 10 255 0.0 6.4 0.00 0.00 0.00 64 1010.4
20260507205203 10 308 3.2 11.3 0.00 0.00 0.00 63 1010.5
20260507204202 10 293 6.4 12.9 0.00 0.00 0.00 64 1010.6
20260507203204 10 303 4.8 11.3 0.00 0.00 0.00 65 1010.6
20260507202202 10 338 4.8 14.5 0.00 0.00 0.00 65 1010.6
20260507201203 10 319 8.0 20.9 0.00 0.00 0.00 61 1010.7
20260507200202 11 306 8.0 20.9 0.00 0.00 0.00 61 1010.7
20260507195203 11 327 4.8 16.1 0.00 0.00 0.00 60 1010.8
20260507194202 12 304 4.8 16.1 0.00 0.00 0.00 59 1010.9
20260507193203 12 15 3.2 19.3 0.00 0.00 0.00 63 1010.9
20260507192202 11 293 3.2 17.7 0.00 0.00 0.00 63 1010.9
20260507191203 10 279 6.4 17.7 0.00 0.00 0.00 66 1011.1
20260507190224 10 293 9.7 17.7 0.00 0.00 0.00 64 1011.2
20260507185246 9 349 9.7 22.5 0.00 0.00 0.00 65 1011.3
20260507184202 9 329 11.3 19.3 0.00 0.00 0.00 63 1011.3
20260507183224 9 306 11.3 22.5 0.00 0.00 0.00 64 1011.2
20260507182202 9 315 6.4 17.7 0.00 0.00 0.00 65 1011.4
20260507181203 9 305 8.0 16.1 0.00 0.00 0.00 66 1011.4
20260507180203 10 313 1.6 17.7 0.00 0.00 0.00 65 1011.2
20260507175203 10 302 1.6 4.8 0.00 0.00 0.00 64 1011.2
20260507174203 10 300 3.2 12.9 0.00 0.00 0.00 63 1011.2
20260507173203 10 334 4.8 14.5 0.00 0.00 0.00 62 1011.2
20260507172202 11 298 3.2 12.9 0.00 0.00 0.00 60 1011.2
20260507171203 11 307 4.8 14.5 0.00 0.00 0.00 59 1011.3
20260507170223 11 11 4.8 12.9 0.00 0.00 0.00 59 1011.3
20260507165203 12 337 4.8 16.1 0.00 0.00 0.00 57 1011.4
20260507164223 12 292 4.8 17.7 0.00 0.00 0.00 58 1011.5
20260507163225 12 282 1.6 14.5 0.00 0.00 0.00 59 1011.6
20260507162203 12 326 4.8 14.5 0.00 0.00 0.00 61 1011.7
20260507161203 11 309 3.2 14.5 0.00 0.00 0.00 59 1011.8
20260507160202 12 273 3.2 11.3 0.00 0.00 0.00 61 1011.9
20260507155203 11 251 3.2 11.3 0.00 0.00 0.00 63 1012.1
20260507154202 11 348 4.8 14.5 0.00 0.00 0.00 63 1012.1
20260507153204 10 282 3.2 14.5 0.00 0.00 0.00 65 1012.1
20260507152202 10 283 6.4 19.3 0.00 0.00 0.00 65 1012.3
20260507151203 10 307 8.0 19.3 0.00 0.00 0.00 64 1012.3
20260507150202 10 335 3.2 17.7 0.00 0.00 0.00 67 1012.3
20260507145203 9 297 8.0 12.9 0.00 0.00 0.00 70 1012.4
20260507144202 8 280 6.4 19.3 0.00 0.00 0.00 73 1012.4
20260507143203 8 239 0.0 14.5 0.00 0.00 0.00 73 1012.4
20260507142202 7 309 3.2 12.9 0.00 0.00 0.00 77 1012.6
20260507141203 7 262 1.6 8.0 0.00 0.03 0.00 78 1012.5
20260507140224 6 141 3.2 8.0 0.00 0.03 0.00 81 1012.6
20260507135203 6 98 0.0 6.4 0.00 0.03 0.00 82 1012.7
20260507134203 6 109 3.2 6.4 0.00 0.05 0.00 85 1012.7
20260507133203 5 117 1.6 6.4 0.00 0.05 0.00 87 1012.9
20260507132203 5 121 0.0 3.2 0.00 0.05 0.00 88 1012.9
20260507131202 5 121 1.6 4.8 0.00 0.05 0.00 89 1012.9
20260507130203 5 111 3.2 6.4 0.00 0.05 0.00 91 1012.9
20260507125204 4 92 0.0 3.2 0.00 0.05 0.00 92 1013.0
20260507124203 4 92 0.0 0.0 0.00 0.05 0.00 92 1013.0
20260507123204 4 87 0.0 0.0 0.00 0.08 0.00 93 1013.1
20260507122202 3 71 0.0 0.0 0.00 0.10 0.00 93 1013.2
20260507121203 3 71 0.0 0.0 0.00 0.10 0.00 92 1013.1
20260507120204 4 61 0.0 0.0 0.00 0.10 0.00 93 1013.1
20260507115203 4 61 0.0 0.0 0.00 0.10 0.00 93 1013.2
20260507114203 5 29 0.0 0.0 0.00 0.13 0.00 93 1013.4
20260507113202 5 29 0.0 0.0 0.00 0.13 0.00 93 1013.4
20260507112203 5 29 0.0 0.0 0.00 0.15 0.00 93 1013.2
20260507111204 5 30 0.0 0.0 0.00 0.18 0.00 93 1013.1
20260507110203 4 30 0.0 0.0 0.00 0.18 0.00 93 1012.8
20260507105202 4 30 0.0 0.0 0.00 0.20 0.00 93 1012.6
20260507104204 4 30 0.0 0.0 0.00 0.20 0.00 93 1012.5
20260507103202 4 30 0.0 0.0 0.00 0.23 0.00 93 1012.4
20260507102224 4 28 0.0 0.0 0.00 0.23 0.00 93 1012.2
20260507101203 3 27 0.0 0.0 0.00 0.25 0.00 93 1012.3
20260507100204 3 27 0.0 0.0 0.00 0.25 0.00 93 1012.3
20260507095225 3 27 0.0 0.0 0.00 0.28 0.00 93 1012.4
20260507094204 3 27 0.0 0.0 0.00 0.30 0.00 92 1012.4
20260507093202 3 27 0.0 0.0 0.00 0.33 0.00 93 1012.4
20260507092203 3 27 0.0 0.0 0.00 0.36 0.00 92 1012.4
20260507091202 3 27 0.0 0.0 0.00 0.38 0.00 93 1012.3
20260507090203 3 27 0.0 0.0 0.00 0.41 0.00 92 1012.4
20260507085204 3 27 0.0 0.0 0.00 0.46 0.00 92 1012.4
20260507083202 3 27 0.0 0.0 0.00 0.51 0.00 92 1012.4
20260507082203 3 27 0.0 0.0 0.00 0.56 0.00 92 1012.4
20260507081224 3 27 0.0 0.0 0.00 0.58 0.00 92 1012.3
20260507080204 3 27 0.0 0.0 0.00 0.61 0.00 92 1012.3
20260507075203 3 27 0.0 0.0 0.00 0.64 0.00 92 1012.3
20260507074202 3 27 0.0 0.0 0.00 0.66 0.00 92 1012.1
20260507073203 3 27 0.0 0.0 0.00 0.71 0.00 92 1012.2
20260507072202 3 27 0.0 0.0 0.00 0.74 0.00 92 1012.0
20260507071203 3 27 0.0 0.0 0.00 0.76 0.00 92 1012.2
20260507070202 3 27 0.0 0.0 0.00 0.81 0.00 92 1012.2
20260507065203 4 27 0.0 0.0 0.00 0.84 0.00 92 1012.2
20260507064203 4 27 0.0 0.0 0.00 0.86 0.00 92 1012.4
20260507063203 5 27 0.0 0.0 0.00 0.91 0.00 92 1012.4
20260507062203 5 27 0.0 0.0 0.00 0.94 0.00 92 1012.6
20260507061203 5 27 0.0 0.0 0.00 0.94 0.00 92 1012.6
20260507060202 5 27 0.0 0.0 0.00 0.97 0.00 92 1012.6
20260507055225 5 27 0.0 0.0 0.00 0.97 0.00 92 1012.6
20260507054225 5 27 0.0 0.0 0.00 0.99 0.00 92 1012.8
20260507053204 5 27 0.0 0.0 0.00 1.02 0.00 92 1012.9
20260507052204 5 27 0.0 0.0 0.00 1.04 0.00 92 1012.9
20260507051203 5 27 0.0 0.0 0.00 1.09 0.00 92 1013.0
20260507050203 5 27 0.0 0.0 0.00 1.14 0.00 92 1013.0
20260507045202 5 27 0.0 0.0 0.00 1.19 0.00 92 1013.2
20260507044224 5 27 0.0 0.0 0.00 1.24 0.00 92 1013.1
20260507043202 6 27 0.0 0.0 0.00 1.30 0.00 92 1013.2
20260507042243 6 27 0.0 0.0 0.00 1.35 0.00 92 1013.2
20260507041203 6 27 0.0 0.0 0.00 1.37 0.00 92 1013.1
20260507040202 6 27 0.0 0.0 0.00 1.37 0.00 92 1013.1
20260507035201 6 27 0.0 0.0 0.00 1.40 1.40 92 1013.1
20260507034203 6 27 0.0 0.0 0.00 1.40 1.40 92 1013.0
20260507033201 6 27 0.0 0.0 0.00 1.40 1.40 92 1013.0
20260507032203 6 27 0.0 0.0 0.00 1.40 1.40 92 1012.9
20260507031201 6 27 0.0 0.0 0.00 1.45 1.40 92 1012.9
20260507030202 6 27 0.0 0.0 0.00 1.47 1.40 92 1013.0
20260507025201 6 27 0.0 0.0 0.00 1.50 1.40 92 1012.9
20260507024202 6 27 0.0 0.0 0.00 1.55 1.40 92 1012.9
20260507023224 6 27 0.0 0.0 0.00 1.57 1.40 92 1012.9
20260507022202 6 27 0.0 0.0 0.00 1.60 1.40 92 1012.9
20260507021202 6 27 0.0 0.0 0.00 1.63 1.40 92 1013.0
20260507020202 6 27 0.0 0.0 0.00 1.63 1.40 92 1013.2
20260507015202 6 27 0.0 0.0 0.00 1.65 1.40 92 1013.3
20260507014222 6 27 0.0 0.0 0.00 1.65 1.40 92 1013.3